When you browse on this site, cookies collect data to enhance your experience and personalize the content and advertising you see.
Visit our Privacy Policy to learn more. By continuing to use the site, you agree to this use of cookies and data.
  • In United Kingdom
  • List of Countries
  • For 7 days
  • Water Temperature
  • Weather Map
  • Weather Widgets
  • user-avatar
    Login

    Hourly Weather Qala i Naw

    Today, 25 August, Sunday

    Time Temperature Precipitation Wind Pressure Humidity
    00:00 +16°C° 0 mm 1 mps 679 mmHg 23%
    01:00 +15°C° 0 mm 1 mps 678 mmHg 25%
    02:00 +13°C° 0 mm 0 mps 678 mmHg 27%
    03:00 +13°C° 0 mm 0 mps 678 mmHg 29%
    04:00 +12°C° 0 mm 0 mps 678 mmHg 31%
    05:00 +15°C° 0 mm 0 mps 679 mmHg 26%
    06:00 +18°C° 0 mm 0 mps 679 mmHg 22%
    07:00 +20°C° 0 mm 0 mps 680 mmHg 17%
    08:00 +24°C° 0 mm 1 mps 680 mmHg 16%
    09:00 +26°C° 0 mm 2 mps 680 mmHg 15%
    10:00 +28°C° 0 mm 3 mps 680 mmHg 15%
    11:00 +29°C° 0 mm 4 mps 680 mmHg 15%
    12:00 +32°C° 0 mm 4 mps 680 mmHg 15%
    13:00 +33°C° 0 mm 5 mps 680 mmHg 14%
    14:00 +33°C° 0 mm 6 mps 679 mmHg 13%
    15:00 +34°C° 0 mm 6 mps 679 mmHg 13%
    16:00 +34°C° 0 mm 6 mps 679 mmHg 13%
    17:00 +30°C° 0 mm 5 mps 679 mmHg 16%
    18:00 +28°C° 0 mm 4 mps 679 mmHg 19%
    19:00 +25°C° 0 mm 4 mps 679 mmHg 22%
    20:00 +24°C° 0 mm 3 mps 679 mmHg 25%
    21:00 +21°C° 0 mm 2 mps 679 mmHg 28%
    22:00 +20°C° 0 mm 2 mps 679 mmHg 32%
    23:00 +20°C° 0 mm 1 mps 679 mmHg 33%

    Tomorrow, 26 August, Monday

    Time Temperature Precipitation Wind Pressure Humidity
    00:00 +20°C° 0 mm 1 mps 679 mmHg 35%
    01:00 +19°C° 0 mm 1 mps 679 mmHg 36%
    02:00 +18°C° 0 mm 1 mps 679 mmHg 39%
    03:00 +15°C° 0 mm 0 mps 678 mmHg 41%
    04:00 +15°C° 0 mm 0 mps 678 mmHg 44%
    05:00 +17°C° 0 mm 0 mps 679 mmHg 37%
    06:00 +20°C° 0 mm 0 mps 680 mmHg 31%
    07:00 +22°C° 0 mm 0 mps 681 mmHg 25%
    08:00 +26°C° 0 mm 1 mps 681 mmHg 22%
    09:00 +28°C° 0 mm 2 mps 681 mmHg 20%
    10:00 +30°C° 0 mm 3 mps 681 mmHg 17%
    11:00 +32°C° 0 mm 4 mps 681 mmHg 16%
    12:00 +33°C° 0 mm 5 mps 681 mmHg 15%
    13:00 +34°C° 0 mm 6 mps 681 mmHg 13%
    14:00 +35°C° 0 mm 6 mps 681 mmHg 13%
    15:00 +35°C° 0 mm 7 mps 680 mmHg 12%
    16:00 +35°C° 0 mm 8 mps 680 mmHg 12%
    17:00 +32°C° 0 mm 7 mps 680 mmHg 14%
    18:00 +29°C° 0 mm 5 mps 680 mmHg 15%
    19:00 +26°C° 0 mm 4 mps 680 mmHg 17%
    20:00 +25°C° 0 mm 3 mps 680 mmHg 19%
    21:00 +22°C° 0 mm 3 mps 680 mmHg 20%
    22:00 +20°C° 0 mm 2 mps 680 mmHg 21%
    23:00 +20°C° 0 mm 1 mps 680 mmHg 23%

    Day after tomorrow, 27 August, Tuesday

    Time Temperature Precipitation Wind Pressure Humidity
    00:00 +19°C° 0 mm 1 mps 680 mmHg 25%
    01:00 +18°C° 0 mm 1 mps 679 mmHg 27%
    02:00 +16°C° 0 mm 1 mps 679 mmHg 29%
    03:00 +15°C° 0 mm 0 mps 679 mmHg 31%
    04:00 +14°C° 0 mm 0 mps 679 mmHg 33%
    05:00 +17°C° 0 mm 0 mps 680 mmHg 28%
    06:00 +20°C° 0 mm 0 mps 681 mmHg 23%
    07:00 +22°C° 0 mm 0 mps 682 mmHg 17%
    08:00 +26°C° 0 mm 1 mps 682 mmHg 16%
    09:00 +28°C° 0 mm 3 mps 682 mmHg 14%
    10:00 +30°C° 0 mm 4 mps 682 mmHg 12%
    11:00 +32°C° 0 mm 5 mps 682 mmHg 11%
    12:00 +33°C° 0 mm 5 mps 682 mmHg 10%
    13:00 +34°C° 0 mm 6 mps 681 mmHg 9%
    14:00 +34°C° 0 mm 7 mps 681 mmHg 9%
    15:00 +34°C° 0 mm 7 mps 681 mmHg 9%
    16:00 +35°C° 0 mm 7 mps 680 mmHg 9%
    17:00 +32°C° 0 mm 6 mps 680 mmHg 10%
    18:00 +29°C° 0 mm 5 mps 680 mmHg 12%
    19:00 +26°C° 0 mm 4 mps 680 mmHg 14%
    20:00 +25°C° 0 mm 3 mps 680 mmHg 16%
    21:00 +23°C° 0 mm 2 mps 680 mmHg 18%
    22:00 +21°C° 0 mm 1 mps 680 mmHg 21%
    23:00 +20°C° 0 mm 1 mps 680 mmHg 23%

    28 August, Wednesday

    Time Temperature Precipitation Wind Pressure Humidity
    00:00 +19°C° 0 mm 1 mps 679 mmHg 25%
    01:00 +18°C° 0 mm 1 mps 679 mmHg 27%
    02:00 +15°C° 0 mm 0 mps 679 mmHg 30%
    03:00 +15°C° 0 mm 0 mps 679 mmHg 34%
    04:00 +14°C° 0 mm 0 mps 678 mmHg 38%
    05:00 +17°C° 0 mm 0 mps 679 mmHg 30%
    06:00 +22°C° 0 mm 1 mps 680 mmHg 22%
    07:00 +25°C° 0 mm 1 mps 681 mmHg 15%
    08:00 +27°C° 0 mm 1 mps 681 mmHg 13%
    09:00 +29°C° 0 mm 2 mps 681 mmHg 12%
    10:00 +31°C° 0 mm 2 mps 681 mmHg 10%
    11:00 +34°C° 0 mm 4 mps 681 mmHg 10%
    12:00 +35°C° 0 mm 5 mps 681 mmHg 9%
    13:00 +36°C° 0 mm 6 mps 681 mmHg 9%
    14:00 +36°C° 0 mm 6 mps 681 mmHg 9%
    15:00 +36°C° 0 mm 6 mps 680 mmHg 10%
    16:00 +36°C° 0 mm 6 mps 680 mmHg 10%
    17:00 +33°C° 0 mm 5 mps 680 mmHg 14%
    18:00 +30°C° 0 mm 4 mps 680 mmHg 17%
    19:00 +27°C° 0 mm 3 mps 680 mmHg 20%
    20:00 +25°C° 0 mm 3 mps 680 mmHg 23%
    21:00 +23°C° 0 mm 2 mps 680 mmHg 27%
    22:00 +22°C° 0 mm 1 mps 680 mmHg 30%
    23:00 +21°C° 0 mm 1 mps 680 mmHg 30%

    29 August, Thursday

    Time Temperature Precipitation Wind Pressure Humidity
    00:00 +21°C° 0 mm 1 mps 680 mmHg 30%
    01:00 +20°C° 0 mm 1 mps 679 mmHg 30%
    02:00 +20°C° 0 mm 1 mps 679 mmHg 32%
    03:00 +19°C° 0 mm 1 mps 679 mmHg 33%
    04:00 +19°C° 0 mm 1 mps 679 mmHg 35%
    05:00 +22°C° 0 mm 1 mps 680 mmHg 29%
    06:00 +24°C° 0 mm 1 mps 681 mmHg 23%
    07:00 +27°C° 0 mm 1 mps 682 mmHg 16%
    08:00 +29°C° 0 mm 2 mps 682 mmHg 15%
    09:00 +31°C° 0 mm 3 mps 682 mmHg 13%
    10:00 +34°C° 0 mm 4 mps 682 mmHg 11%
    11:00 +35°C° 0 mm 6 mps 682 mmHg 11%
    12:00 +38°C° 0 mm 7 mps 682 mmHg 11%
    13:00 +39°C° 0 mm 9 mps 682 mmHg 11%
    14:00 +39°C° 0 mm 9 mps 682 mmHg 11%
    15:00 +39°C° 0 mm 9 mps 681 mmHg 12%
    16:00 +38°C° 0 mm 9 mps 681 mmHg 12%
    17:00 +35°C° 0 mm 7 mps 681 mmHg 14%
    18:00 +32°C° 0 mm 6 mps 681 mmHg 17%
    19:00 +29°C° 0 mm 4 mps 681 mmHg 19%
    20:00 +27°C° 0 mm 3 mps 680 mmHg 22%
    21:00 +25°C° 0 mm 2 mps 680 mmHg 26%
    22:00 +23°C° 0 mm 1 mps 680 mmHg 29%
    23:00 +22°C° 0 mm 1 mps 680 mmHg 31%

    30 August, Friday

    Time Temperature Precipitation Wind Pressure Humidity
    00:00 +21°C° 0 mm 1 mps 680 mmHg 34%
    01:00 +20°C° 0 mm 1 mps 679 mmHg 36%
    02:00 +20°C° 0 mm 1 mps 679 mmHg 38%
    03:00 +19°C° 0 mm 1 mps 679 mmHg 40%
    04:00 +19°C° 0 mm 1 mps 679 mmHg 42%
    05:00 +21°C° 0 mm 1 mps 680 mmHg 37%
    06:00 +22°C° 0 mm 1 mps 681 mmHg 33%
    07:00 +24°C° 0 mm 1 mps 681 mmHg 28%
    08:00 +26°C° 0 mm 2 mps 681 mmHg 26%
    09:00 +28°C° 0 mm 3 mps 682 mmHg 23%
    10:00 +30°C° 0 mm 4 mps 682 mmHg 21%
    11:00 +32°C° 0 mm 6 mps 682 mmHg 19%
    12:00 +34°C° 0 mm 8 mps 682 mmHg 17%
    13:00 +37°C° 0 mm 10 mps 681 mmHg 15%
    14:00 +36°C° 0 mm 10 mps 681 mmHg 15%
    15:00 +36°C° 0 mm 10 mps 681 mmHg 15%
    16:00 +36°C° 0 mm 10 mps 680 mmHg 15%
    17:00 +33°C° 0 mm 8 mps 680 mmHg 18%
    18:00 +30°C° 0 mm 7 mps 680 mmHg 21%
    19:00 +27°C° 0 mm 5 mps 680 mmHg 23%
    20:00 +25°C° 0 mm 4 mps 680 mmHg 28%
    21:00 +24°C° 0 mm 3 mps 680 mmHg 32%
    22:00 +21°C° 0 mm 2 mps 680 mmHg 36%
    23:00 +21°C° 0 mm 1 mps 680 mmHg 37%
    Show more